Data supplied by UK-AIR on 7/5/2016
All Data GMT hour ending 
Status: R =Ratified P=Provisional,P*=As supplied
,,Cwmbran,,,,,,,,,,,,,,,,,,,,,,,
Date,time,"Nitric oxide",status,unit,"Nitrogen dioxide",status,unit,"Nitrogen oxides as nitrogen dioxide",status,unit,"Ozone",status,unit
 
01-01-2015,01:00,0.27846,R,ugm-3,5.68538,R,ugm-3,6.11235,R,ugm-3,54.61566,R,ugm-3
01-01-2015,02:00,0.18554,R,ugm-3,6.58617,R,ugm-3,6.87066,R,ugm-3,51.42254,R,ugm-3
01-01-2015,03:00,0.15435,R,ugm-3,5.73320,R,ugm-3,5.96987,R,ugm-3,50.14196,R,ugm-3
01-01-2015,04:00,0.12348,R,ugm-3,2.65359,R,ugm-3,2.84293,R,ugm-3,52.13766,R,ugm-3
01-01-2015,05:00,0.24728,R,ugm-3,2.84293,R,ugm-3,3.22208,R,ugm-3,56.32863,R,ugm-3
01-01-2015,06:00,0.24697,R,ugm-3,3.03323,R,ugm-3,3.41190,R,ugm-3,56.97724,R,ugm-3
01-01-2015,07:00,0.24759,R,ugm-3,3.22161,R,ugm-3,3.60124,R,ugm-3,58.02498,R,ugm-3
01-01-2015,08:00,0.06174,R,ugm-3,2.93712,R,ugm-3,3.03179,R,ugm-3,59.42197,R,ugm-3
01-01-2015,09:00,0.30902,R,ugm-3,5.07052,R,ugm-3,5.54434,R,ugm-3,59.17251,R,ugm-3
01-01-2015,10:00,0.55692,R,ugm-3,8.10135,R,ugm-3,8.95528,R,ugm-3,54.73207,R,ugm-3
01-01-2015,11:00,0.58748,R,ugm-3,10.37675,R,ugm-3,11.27753,R,ugm-3,51.53895,R,ugm-3
01-01-2015,12:00,0.49518,R,ugm-3,8.81137,R,ugm-3,9.57063,R,ugm-3,52.88605,R,ugm-3
01-01-2015,13:00,0.30933,R,ugm-3,6.20654,R,ugm-3,6.68084,R,ugm-3,61.26799,R,ugm-3
01-01-2015,14:00,0.24738,R,ugm-3,6.88564,R,ugm-3,7.26495,R,ugm-3,67.55445,R,ugm-3
01-01-2015,15:00,0.18522,R,ugm-3,6.01816,R,ugm-3,6.30217,R,ugm-3,65.30928,R,ugm-3
01-01-2015,16:00,0.24728,R,ugm-3,7.48648,R,ugm-3,7.86563,R,ugm-3,66.95574,R,ugm-3
01-01-2015,17:00,0.24728,R,ugm-3,7.24933,R,ugm-3,7.62848,R,ugm-3,63.96219,R,ugm-3
01-01-2015,18:00,0.58779,R,ugm-3,28.66551,R,ugm-3,29.56677,R,ugm-3,63.66283,R,ugm-3
01-01-2015,19:00,0.30933,R,ugm-3,3.74228,R,ugm-3,4.21658,R,ugm-3,41.26110,R,ugm-3
01-01-2015,20:00,0.15435,R,ugm-3,1.51661,R,ugm-3,1.75328,R,ugm-3,67.15531,R,ugm-3
01-01-2015,21:00,0.06174,R,ugm-3,0.71097,R,ugm-3,0.80564,R,ugm-3,70.84735,R,ugm-3
01-01-2015,22:00,0.18522,R,ugm-3,0.52163,R,ugm-3,0.80564,R,ugm-3,74.24004,R,ugm-3
01-01-2015,23:00,0.21641,R,ugm-3,0.61535,R,ugm-3,0.94717,R,ugm-3,74.58929,R,ugm-3
01-01-2015,24:00,0.09261,R,ugm-3,0.75878,R,ugm-3,0.90079,R,ugm-3,73.99058,R,ugm-3
02-01-2015,01:00,0.18522,R,ugm-3,0.85298,R,ugm-3,1.13698,R,ugm-3,74.77223,R,ugm-3
02-01-2015,02:00,0.06174,R,ugm-3,0.56801,R,ugm-3,0.66268,R,ugm-3,74.17352,R,ugm-3
02-01-2015,03:00,0.43250,R,ugm-3,2.17977,R,ugm-3,2.84293,R,ugm-3,75.93639,R,ugm-3
02-01-2015,04:00,0.15435,R,ugm-3,0.47382,R,ugm-3,0.71049,R,ugm-3,74.58929,R,ugm-3
02-01-2015,05:00,0.09261,R,ugm-3,1.27994,R,ugm-3,1.42194,R,ugm-3,75.73682,R,ugm-3
02-01-2015,06:00,0.24697,R,ugm-3,2.98589,R,ugm-3,3.36457,R,ugm-3,74.04047,R,ugm-3
02-01-2015,07:00,0.30902,R,ugm-3,5.30671,R,ugm-3,5.78053,R,ugm-3,72.24434,R,ugm-3
02-01-2015,08:00,0.33958,R,ugm-3,6.44417,R,ugm-3,6.96485,R,ugm-3,69.79961,R,ugm-3
02-01-2015,09:00,0.68009,R,ugm-3,9.61844,R,ugm-3,10.66123,R,ugm-3,67.15531,R,ugm-3
02-01-2015,10:00,0.80389,R,ugm-3,6.82237,R,ugm-3,8.05497,R,ugm-3,62.36563,R,ugm-3
02-01-2015,11:00,0.86563,R,ugm-3,5.73224,R,ugm-3,7.05952,R,ugm-3,65.50885,R,ugm-3
02-01-2015,12:00,0.98911,R,ugm-3,5.96987,R,ugm-3,7.48648,R,ugm-3,67.35488,R,ugm-3
02-01-2015,13:00,0.74214,R,ugm-3,4.64259,R,ugm-3,5.78053,R,ugm-3,67.85380,R,ugm-3
02-01-2015,14:00,0.71065,R,ugm-3,6.20750,R,ugm-3,7.29714,R,ugm-3,70.19875,R,ugm-3
02-01-2015,15:00,0.40163,R,ugm-3,7.05999,R,ugm-3,7.67582,R,ugm-3,68.10326,R,ugm-3
02-01-2015,16:00,0.86500,R,ugm-3,24.16492,R,ugm-3,25.49123,R,ugm-3,70.39832,R,ugm-3
02-01-2015,17:00,16.06928,R,ugm-3,53.77807,R,ugm-3,78.41728,R,ugm-3,49.64304,R,ugm-3
02-01-2015,18:00,34.98084,R,ugm-3,75.62216,R,ugm-3,129.25870,R,ugm-3,21.10453,R,ugm-3
02-01-2015,19:00,38.31799,R,ugm-3,64.34558,R,ugm-3,123.09902,R,ugm-3,1.89592,R,ugm-3
02-01-2015,20:00,40.72871,R,ugm-3,60.12804,R,ugm-3,122.57786,R,ugm-3,11.52517,R,ugm-3
02-01-2015,21:00,53.24381,R,ugm-3,59.89089,R,ugm-3,141.53026,R,ugm-3,3.59226,R,ugm-3
02-01-2015,22:00,41.99566,R,ugm-3,60.31738,R,ugm-3,124.70982,R,ugm-3,2.09549,R,ugm-3
02-01-2015,23:00,17.64493,R,ugm-3,51.07762,R,ugm-3,78.13280,R,ugm-3,2.59441,R,ugm-3
02-01-2015,24:00,1.76150,R,ugm-3,41.79052,R,ugm-3,44.49144,R,ugm-3,5.03914,R,ugm-3
03-01-2015,01:00,2.13257,R,ugm-3,30.51394,R,ugm-3,33.78383,R,ugm-3,11.57506,R,ugm-3
03-01-2015,02:00,0.83413,R,ugm-3,26.77165,R,ugm-3,28.05064,R,ugm-3,22.28532,R,ugm-3
03-01-2015,03:00,1.88498,R,ugm-3,25.53905,R,ugm-3,28.42931,R,ugm-3,21.05464,R,ugm-3
03-01-2015,04:00,0.27784,R,ugm-3,15.49460,R,ugm-3,15.92061,R,ugm-3,26.84217,R,ugm-3
03-01-2015,05:00,0.80389,R,ugm-3,11.56058,R,ugm-3,12.79319,R,ugm-3,44.95314,R,ugm-3
03-01-2015,06:00,0.58748,R,ugm-3,8.43365,R,ugm-3,9.33443,R,ugm-3,49.04433,R,ugm-3
03-01-2015,07:00,0.92706,R,ugm-3,13.45635,R,ugm-3,14.87782,R,ugm-3,57.87530,R,ugm-3
03-01-2015,08:00,0.86563,R,ugm-3,9.90197,R,ugm-3,11.22924,R,ugm-3,53.23530,R,ugm-3
03-01-2015,09:00,1.11259,R,ugm-3,9.85511,R,ugm-3,11.56106,R,ugm-3,60.32003,R,ugm-3
03-01-2015,10:00,1.63739,R,ugm-3,12.88834,R,ugm-3,15.39897,R,ugm-3,60.36993,R,ugm-3
03-01-2015,11:00,2.03934,R,ugm-3,13.45683,R,ugm-3,16.58377,R,ugm-3,56.77767,R,ugm-3
03-01-2015,12:00,2.03965,R,ugm-3,11.27658,R,ugm-3,14.40399,R,ugm-3,55.43057,R,ugm-3
03-01-2015,13:00,1.45217,R,ugm-3,8.33946,R,ugm-3,10.56608,R,ugm-3,55.18111,R,ugm-3
03-01-2015,14:00,1.76150,R,ugm-3,10.32893,R,ugm-3,13.02986,R,ugm-3,61.11831,R,ugm-3
03-01-2015,15:00,1.32869,R,ugm-3,11.98755,R,ugm-3,14.02484,R,ugm-3,58.12476,R,ugm-3
03-01-2015,16:00,1.23607,R,ugm-3,12.93567,R,ugm-3,14.83096,R,ugm-3,55.82971,R,ugm-3
03-01-2015,17:00,0.98911,R,ugm-3,14.82953,R,ugm-3,16.34614,R,ugm-3,58.92304,R,ugm-3
03-01-2015,18:00,1.29782,R,ugm-3,15.96794,R,ugm-3,17.95790,R,ugm-3,55.03143,R,ugm-3
03-01-2015,19:00,1.20520,R,ugm-3,9.95026,R,ugm-3,11.79821,R,ugm-3,55.48046,R,ugm-3
03-01-2015,20:00,1.11259,R,ugm-3,8.33946,R,ugm-3,10.04541,R,ugm-3,62.31573,R,ugm-3
03-01-2015,21:00,0.67978,R,ugm-3,8.81280,R,ugm-3,9.85511,R,ugm-3,61.76692,R,ugm-3
03-01-2015,22:00,1.39043,R,ugm-3,7.96030,R,ugm-3,10.09226,R,ugm-3,55.82971,R,ugm-3
03-01-2015,23:00,1.23607,R,ugm-3,6.82332,R,ugm-3,8.71861,R,ugm-3,61.01853,R,ugm-3
03-01-2015,24:00,0.74183,R,ugm-3,10.09226,R,ugm-3,11.22972,R,ugm-3,59.77122,R,ugm-3
04-01-2015,01:00,1.48335,R,ugm-3,22.12715,R,ugm-3,24.40159,R,ugm-3,51.62211,R,ugm-3
04-01-2015,02:00,1.51422,R,ugm-3,25.25456,R,ugm-3,27.57634,R,ugm-3,16.83040,R,ugm-3
04-01-2015,03:00,6.82928,R,ugm-3,29.80392,R,ugm-3,40.27534,R,ugm-3,9.72904,R,ugm-3
04-01-2015,04:00,3.09019,R,ugm-3,25.87039,R,ugm-3,30.60861,R,ugm-3,2.29506,R,ugm-3
04-01-2015,05:00,6.45852,R,ugm-3,27.95597,R,ugm-3,37.85889,R,ugm-3,2.29506,R,ugm-3
04-01-2015,06:00,3.15224,R,ugm-3,26.86537,R,ugm-3,31.69873,R,ugm-3,1.59656,R,ugm-3
04-01-2015,07:00,2.34835,R,ugm-3,22.03296,R,ugm-3,25.63372,R,ugm-3,13.22151,R,ugm-3
04-01-2015,08:00,9.27056,R,ugm-3,30.46660,R,ugm-3,44.68126,R,ugm-3,14.16947,R,ugm-3
04-01-2015,09:00,4.60441,R,ugm-3,28.80847,R,ugm-3,35.86846,R,ugm-3,2.29506,R,ugm-3
04-01-2015,10:00,3.15193,R,ugm-3,29.89859,R,ugm-3,34.73148,R,ugm-3,7.93291,R,ugm-3
04-01-2015,11:00,1.57628,R,ugm-3,17.29378,R,ugm-3,19.71070,R,ugm-3,14.91786,R,ugm-3
04-01-2015,12:00,0.92737,R,ugm-3,10.89743,R,ugm-3,12.31937,R,ugm-3,38.86626,R,ugm-3
04-01-2015,13:00,0.95824,R,ugm-3,13.50321,R,ugm-3,14.97248,R,ugm-3,47.79702,R,ugm-3
04-01-2015,14:00,1.23607,R,ugm-3,23.75453,R,ugm-3,25.64981,R,ugm-3,43.55615,R,ugm-3
04-01-2015,15:00,1.14346,R,ugm-3,26.86537,R,ugm-3,28.61865,R,ugm-3,34.22626,R,ugm-3
04-01-2015,16:00,1.05085,R,ugm-3,36.91029,R,ugm-3,38.52158,R,ugm-3,28.73808,R,ugm-3
04-01-2015,17:00,1.08172,R,ugm-3,38.42691,R,ugm-3,40.08552,R,ugm-3,15.76603,R,ugm-3
04-01-2015,18:00,1.20520,R,ugm-3,38.94806,R,ugm-3,40.79602,R,ugm-3,11.82452,R,ugm-3
04-01-2015,19:00,4.69733,R,ugm-3,46.19739,R,ugm-3,53.39987,R,ugm-3,11.72474,R,ugm-3
04-01-2015,20:00,3.70822,R,ugm-3,41.31669,R,ugm-3,47.00256,R,ugm-3,4.93936,R,ugm-3
04-01-2015,21:00,1.69945,R,ugm-3,33.07286,R,ugm-3,35.67864,R,ugm-3,5.98710,R,ugm-3
04-01-2015,22:00,4.45006,R,ugm-3,36.43695,R,ugm-3,43.26027,R,ugm-3,10.47743,R,ugm-3
04-01-2015,23:00,0.58717,R,ugm-3,17.53189,R,ugm-3,18.43220,R,ugm-3,5.88732,R,ugm-3
04-01-2015,24:00,0.30871,R,ugm-3,6.06549,R,ugm-3,6.53884,R,ugm-3,30.33464,R,ugm-3
05-01-2015,01:00,0.21610,R,ugm-3,4.64881,R,ugm-3,4.98015,R,ugm-3,50.89035,R,ugm-3
05-01-2015,02:00,0.24697,R,ugm-3,6.87783,R,ugm-3,7.25650,R,ugm-3,47.89680,R,ugm-3
05-01-2015,03:00,0.30871,R,ugm-3,11.19386,R,ugm-3,11.66721,R,ugm-3,43.55615,R,ugm-3
05-01-2015,04:00,0.37045,R,ugm-3,11.90627,R,ugm-3,12.47428,R,ugm-3,38.41723,R,ugm-3
05-01-2015,05:00,0.55567,R,ugm-3,15.65333,R,ugm-3,16.50535,R,ugm-3,35.02454,R,ugm-3
05-01-2015,06:00,2.03747,R,ugm-3,27.08913,R,ugm-3,30.21320,R,ugm-3,28.43873,R,ugm-3
05-01-2015,07:00,7.68680,R,ugm-3,43.84932,R,ugm-3,55.63558,R,ugm-3,21.90281,R,ugm-3
05-01-2015,08:00,3.51926,R,ugm-3,42.93563,R,ugm-3,48.33174,R,ugm-3,10.72689,R,ugm-3
05-01-2015,09:00,5.64933,R,ugm-3,46.16679,R,ugm-3,54.82898,R,ugm-3,12.37334,R,ugm-3
05-01-2015,10:00,10.70183,R,ugm-3,54.73575,R,ugm-3,71.14500,R,ugm-3,14.86797,R,ugm-3
05-01-2015,11:00,,,,,,,,,,8.48173,R,ugm-3
05-01-2015,12:00,4.19841,R,ugm-3,42.41543,R,ugm-3,48.85290,R,ugm-3,17.66195,R,ugm-3
05-01-2015,13:00,2.25356,R,ugm-3,32.30643,R,ugm-3,35.76184,R,ugm-3,27.69034,R,ugm-3
05-01-2015,14:00,5.00105,R,ugm-3,44.31502,R,ugm-3,51.98318,R,ugm-3,35.67314,R,ugm-3
05-01-2015,15:00,2.96359,R,ugm-3,44.68843,R,ugm-3,49.23253,R,ugm-3,24.64690,R,ugm-3
05-01-2015,16:00,0.80264,R,ugm-3,30.59474,R,ugm-3,31.82543,R,ugm-3,25.84432,R,ugm-3
05-01-2015,17:00,0.64828,R,ugm-3,27.08483,R,ugm-3,28.07885,R,ugm-3,41.26110,R,ugm-3
05-01-2015,18:00,0.64828,R,ugm-3,21.63038,R,ugm-3,22.62440,R,ugm-3,43.10712,R,ugm-3
05-01-2015,19:00,0.40132,R,ugm-3,18.73628,R,ugm-3,19.35163,R,ugm-3,49.24390,R,ugm-3
05-01-2015,20:00,0.49393,R,ugm-3,14.37244,R,ugm-3,15.12979,R,ugm-3,51.28949,R,ugm-3
05-01-2015,21:00,0.33958,R,ugm-3,11.19482,R,ugm-3,11.71550,R,ugm-3,54.13336,R,ugm-3
05-01-2015,22:00,0.46306,R,ugm-3,12.23857,R,ugm-3,12.94858,R,ugm-3,55.33078,R,ugm-3
05-01-2015,23:00,0.30871,R,ugm-3,9.67677,R,ugm-3,10.15012,R,ugm-3,52.28734,R,ugm-3
05-01-2015,24:00,0.30871,R,ugm-3,8.72769,R,ugm-3,9.20104,R,ugm-3,54.48261,R,ugm-3
06-01-2015,01:00,0.33958,R,ugm-3,8.38727,R,ugm-3,8.90795,R,ugm-3,51.15644,R,ugm-3
06-01-2015,02:00,0.30871,R,ugm-3,7.15466,R,ugm-3,7.62801,R,ugm-3,48.42899,R,ugm-3
06-01-2015,03:00,0.30871,R,ugm-3,6.39683,R,ugm-3,6.87018,R,ugm-3,51.23960,R,ugm-3
06-01-2015,04:00,0.21610,R,ugm-3,4.31173,R,ugm-3,4.64307,R,ugm-3,54.58240,R,ugm-3
06-01-2015,05:00,0.24697,R,ugm-3,4.78651,R,ugm-3,5.16518,R,ugm-3,55.33078,R,ugm-3
06-01-2015,06:00,0.24697,R,ugm-3,11.79773,R,ugm-3,12.17641,R,ugm-3,55.92949,R,ugm-3
06-01-2015,07:00,0.89463,R,ugm-3,28.90505,R,ugm-3,30.27679,R,ugm-3,48.49551,R,ugm-3
06-01-2015,08:00,1.29532,R,ugm-3,30.23423,R,ugm-3,32.22037,R,ugm-3,28.43873,R,ugm-3
06-01-2015,09:00,0.46275,R,ugm-3,7.48839,R,ugm-3,8.19793,R,ugm-3,39.91400,R,ugm-3
06-01-2015,10:00,0.64766,R,ugm-3,5.54577,R,ugm-3,6.53884,R,ugm-3,70.89724,R,ugm-3
06-01-2015,11:00,0.73996,R,ugm-3,5.02509,R,ugm-3,6.15968,R,ugm-3,74.98843,R,ugm-3
06-01-2015,12:00,0.83257,R,ugm-3,4.93043,R,ugm-3,6.20702,R,ugm-3,73.44176,R,ugm-3
06-01-2015,13:00,0.80139,R,ugm-3,4.64642,R,ugm-3,5.87520,R,ugm-3,70.79746,R,ugm-3
06-01-2015,14:00,1.07923,R,ugm-3,9.14844,R,ugm-3,10.80323,R,ugm-3,69.10111,R,ugm-3
06-01-2015,15:00,0.89400,R,ugm-3,13.17521,R,ugm-3,14.54600,R,ugm-3,64.26154,R,ugm-3
06-01-2015,16:00,1.78863,R,ugm-3,35.11589,R,ugm-3,37.85842,R,ugm-3,58.67358,R,ugm-3
06-01-2015,17:00,16.96203,R,ugm-3,67.09815,R,ugm-3,93.10624,R,ugm-3,34.72518,R,ugm-3
06-01-2015,18:00,67.69315,R,ugm-3,71.28270,R,ugm-3,175.07742,R,ugm-3,3.94151,R,ugm-3
06-01-2015,19:00,31.98046,R,ugm-3,67.23968,R,ugm-3,116.27570,R,ugm-3,1.49678,R,ugm-3
06-01-2015,20:00,38.67285,R,ugm-3,63.32718,R,ugm-3,122.62472,R,ugm-3,2.99355,R,ugm-3
06-01-2015,21:00,60.69206,R,ugm-3,62.44791,R,ugm-3,155.50777,R,ugm-3,1.64645,R,ugm-3
06-01-2015,22:00,54.30807,R,ugm-3,59.39699,R,ugm-3,142.66820,R,ugm-3,1.59656,R,ugm-3
06-01-2015,23:00,41.54070,R,ugm-3,60.82515,R,ugm-3,124.52001,R,ugm-3,1.14753,R,ugm-3
06-01-2015,24:00,22.01952,R,ugm-3,52.14144,R,ugm-3,85.90424,R,ugm-3,1.29721,R,ugm-3
07-01-2015,01:00,2.55946,R,ugm-3,28.87827,R,ugm-3,32.80272,R,ugm-3,0.73176,R,ugm-3
07-01-2015,02:00,0.58592,R,ugm-3,10.65119,R,ugm-3,11.54959,R,ugm-3,27.07500,R,ugm-3
07-01-2015,03:00,0.64766,R,ugm-3,13.44392,R,ugm-3,14.43698,R,ugm-3,42.15916,R,ugm-3
07-01-2015,04:00,0.58561,R,ugm-3,12.40304,R,ugm-3,13.30096,R,ugm-3,44.10497,R,ugm-3
07-01-2015,05:00,0.58561,R,ugm-3,13.63373,R,ugm-3,14.53165,R,ugm-3,41.76002,R,ugm-3
07-01-2015,06:00,0.67822,R,ugm-3,17.79916,R,ugm-3,18.83908,R,ugm-3,40.66239,R,ugm-3
07-01-2015,07:00,0.67822,R,ugm-3,23.47928,R,ugm-3,24.51921,R,ugm-3,39.66454,R,ugm-3
07-01-2015,08:00,1.44967,R,ugm-3,35.02935,R,ugm-3,37.25215,R,ugm-3,36.32174,R,ugm-3
07-01-2015,09:00,1.48055,R,ugm-3,26.98251,R,ugm-3,29.25264,R,ugm-3,30.88346,R,ugm-3
07-01-2015,10:00,1.23358,R,ugm-3,18.60432,R,ugm-3,20.49578,R,ugm-3,43.15701,R,ugm-3
07-01-2015,11:00,3.51583,R,ugm-3,27.60120,R,ugm-3,32.99206,R,ugm-3,53.63444,R,ugm-3
07-01-2015,12:00,3.45409,R,ugm-3,30.20459,R,ugm-3,35.50078,R,ugm-3,43.75572,R,ugm-3
07-01-2015,13:00,4.78028,R,ugm-3,27.83978,R,ugm-3,35.16944,R,ugm-3,41.71013,R,ugm-3
07-01-2015,14:00,0.90429,R,ugm-3,9.59501,R,ugm-3,10.98158,R,ugm-3,46.74927,R,ugm-3
07-01-2015,15:00,0.67853,R,ugm-3,10.13051,R,ugm-3,11.17091,R,ugm-3,63.71272,R,ugm-3
07-01-2015,16:00,0.64704,R,ugm-3,22.62774,R,ugm-3,23.61985,R,ugm-3,61.11831,R,ugm-3
07-01-2015,17:00,0.73965,R,ugm-3,23.05375,R,ugm-3,24.18787,R,ugm-3,48.39573,R,ugm-3
07-01-2015,18:00,0.67791,R,ugm-3,19.83502,R,ugm-3,20.87446,R,ugm-3,48.79487,R,ugm-3
07-01-2015,19:00,0.64704,R,ugm-3,25.98848,R,ugm-3,26.98059,R,ugm-3,52.58670,R,ugm-3
07-01-2015,20:00,1.23358,R,ugm-3,49.89234,R,ugm-3,51.78381,R,ugm-3,45.75142,R,ugm-3
07-01-2015,21:00,0.40070,R,ugm-3,14.43794,R,ugm-3,15.05233,R,ugm-3,22.70109,R,ugm-3
07-01-2015,22:00,0.27784,R,ugm-3,1.27803,R,ugm-3,1.70404,R,ugm-3,59.62154,R,ugm-3
07-01-2015,23:00,0.43188,R,ugm-3,0.56849,R,ugm-3,1.23069,R,ugm-3,77.53295,R,ugm-3
07-01-2015,24:00,0.24697,R,ugm-3,0.47334,R,ugm-3,0.85202,R,ugm-3,77.68262,R,ugm-3
08-01-2015,01:00,0.36920,R,ugm-3,1.60889,R,ugm-3,2.17499,R,ugm-3,76.03617,R,ugm-3
08-01-2015,02:00,0.36951,R,ugm-3,2.50729,R,ugm-3,3.07387,R,ugm-3,76.16922,R,ugm-3
08-01-2015,03:00,0.61617,R,ugm-3,3.73655,R,ugm-3,4.68132,R,ugm-3,77.28348,R,ugm-3
08-01-2015,04:00,0.36982,R,ugm-3,3.16853,R,ugm-3,3.73559,R,ugm-3,76.08606,R,ugm-3
08-01-2015,05:00,0.36951,R,ugm-3,3.92588,R,ugm-3,4.49246,R,ugm-3,76.38542,R,ugm-3
08-01-2015,06:00,0.43125,R,ugm-3,7.37747,R,ugm-3,8.03872,R,ugm-3,72.34413,R,ugm-3
08-01-2015,07:00,0.33895,R,ugm-3,8.27539,R,ugm-3,8.79511,R,ugm-3,66.45681,R,ugm-3
08-01-2015,08:00,0.52387,R,ugm-3,15.03799,R,ugm-3,15.84124,R,ugm-3,73.54155,R,ugm-3
08-01-2015,09:00,0.52355,R,ugm-3,13.47787,R,ugm-3,14.28064,R,ugm-3,68.40262,R,ugm-3
08-01-2015,10:00,1.32463,R,ugm-3,14.51922,R,ugm-3,16.55030,R,ugm-3,70.94714,R,ugm-3
08-01-2015,11:00,1.23233,R,ugm-3,7.04804,R,ugm-3,8.93759,R,ugm-3,69.20090,R,ugm-3
08-01-2015,12:00,1.14003,R,ugm-3,8.13434,R,ugm-3,9.88237,R,ugm-3,71.74542,R,ugm-3
08-01-2015,13:00,1.10885,R,ugm-3,6.24431,R,ugm-3,7.94453,R,ugm-3,67.85380,R,ugm-3
08-01-2015,14:00,1.01686,R,ugm-3,6.90556,R,ugm-3,8.46473,R,ugm-3,69.35058,R,ugm-3
08-01-2015,15:00,0.86282,R,ugm-3,9.07959,R,ugm-3,10.40257,R,ugm-3,68.25294,R,ugm-3
08-01-2015,16:00,0.43125,R,ugm-3,9.78865,R,ugm-3,10.44990,R,ugm-3,65.30928,R,ugm-3
08-01-2015,17:00,0.55443,R,ugm-3,11.53907,R,ugm-3,12.38918,R,ugm-3,64.01208,R,ugm-3
08-01-2015,18:00,0.58530,R,ugm-3,10.54600,R,ugm-3,11.44344,R,ugm-3,63.46326,R,ugm-3
08-01-2015,19:00,0.64704,R,ugm-3,14.51827,R,ugm-3,15.51038,R,ugm-3,63.46326,R,ugm-3
08-01-2015,20:00,0.67791,R,ugm-3,15.65286,R,ugm-3,16.69230,R,ugm-3,57.67573,R,ugm-3
08-01-2015,21:00,0.27752,R,ugm-3,3.97226,R,ugm-3,4.39779,R,ugm-3,55.38068,R,ugm-3
08-01-2015,22:00,0.52387,R,ugm-3,8.98540,R,ugm-3,9.78865,R,ugm-3,70.94714,R,ugm-3
08-01-2015,23:00,0.83195,R,ugm-3,43.64660,R,ugm-3,44.92223,R,ugm-3,68.65208,R,ugm-3
08-01-2015,24:00,0.49268,R,ugm-3,20.85486,R,ugm-3,21.61029,R,ugm-3,35.27400,R,ugm-3
09-01-2015,01:00,0.33864,R,ugm-3,2.88501,R,ugm-3,3.40425,R,ugm-3,52.95257,R,ugm-3
09-01-2015,02:00,0.28730,R,ugm-3,,,,,,,81.22499,R,ugm-3
09-01-2015,03:00,0.43094,R,ugm-3,0.85250,R,ugm-3,1.51327,R,ugm-3,86.11446,R,ugm-3
09-01-2015,04:00,0.36920,R,ugm-3,1.98757,R,ugm-3,2.55367,R,ugm-3,82.92134,R,ugm-3
09-01-2015,05:00,0.33833,R,ugm-3,2.36528,R,ugm-3,2.88405,R,ugm-3,78.03187,R,ugm-3
09-01-2015,06:00,0.33833,R,ugm-3,2.50777,R,ugm-3,3.02653,R,ugm-3,76.18585,R,ugm-3
09-01-2015,07:00,0.55380,R,ugm-3,8.46616,R,ugm-3,9.31531,R,ugm-3,76.03617,R,ugm-3
09-01-2015,08:00,0.61585,R,ugm-3,14.94428,R,ugm-3,15.88857,R,ugm-3,68.05337,R,ugm-3
09-01-2015,09:00,1.63116,R,ugm-3,18.11568,R,ugm-3,20.61675,R,ugm-3,59.82111,R,ugm-3
09-01-2015,10:00,0.89244,R,ugm-3,7.23786,R,ugm-3,8.60625,R,ugm-3,55.43057,R,ugm-3
09-01-2015,11:00,0.76927,R,ugm-3,5.72459,R,ugm-3,6.90413,R,ugm-3,69.64993,R,ugm-3
09-01-2015,12:00,0.67697,R,ugm-3,3.12359,R,ugm-3,4.16160,R,ugm-3,72.44391,R,ugm-3
09-01-2015,13:00,0.55443,R,ugm-3,3.02701,R,ugm-3,3.87712,R,ugm-3,74.93854,R,ugm-3
09-01-2015,14:00,0.58498,R,ugm-3,3.07482,R,ugm-3,3.97178,R,ugm-3,71.99488,R,ugm-3
09-01-2015,15:00,0.58530,R,ugm-3,4.44608,R,ugm-3,5.34353,R,ugm-3,66.30713,R,ugm-3
09-01-2015,16:00,0.64641,R,ugm-3,4.02103,R,ugm-3,5.01218,R,ugm-3,61.86670,R,ugm-3
09-01-2015,17:00,0.52355,R,ugm-3,4.39827,R,ugm-3,5.20104,R,ugm-3,61.61724,R,ugm-3
09-01-2015,18:00,0.46181,R,ugm-3,4.20941,R,ugm-3,4.91752,R,ugm-3,61.81681,R,ugm-3
09-01-2015,19:00,0.46181,R,ugm-3,2.46043,R,ugm-3,3.16853,R,ugm-3,62.96434,R,ugm-3
09-01-2015,20:00,0.43094,R,ugm-3,1.04136,R,ugm-3,1.70213,R,ugm-3,66.40692,R,ugm-3
09-01-2015,21:00,0.40007,R,ugm-3,1.27803,R,ugm-3,1.89146,R,ugm-3,67.85380,R,ugm-3
09-01-2015,22:00,0.36920,R,ugm-3,2.74444,R,ugm-3,3.31054,R,ugm-3,68.50240,R,ugm-3
09-01-2015,23:00,0.24603,R,ugm-3,1.04136,R,ugm-3,1.41860,R,ugm-3,66.45681,R,ugm-3
09-01-2015,24:00,0.40007,R,ugm-3,0.66316,R,ugm-3,1.27659,R,ugm-3,69.64993,R,ugm-3
10-01-2015,01:00,0.30746,R,ugm-3,0.18934,R,ugm-3,0.66077,R,ugm-3,70.64778,R,ugm-3
10-01-2015,02:00,0.27690,R,ugm-3,0.33086,R,ugm-3,0.75544,R,ugm-3,72.31086,R,ugm-3
10-01-2015,03:00,0.43094,R,ugm-3,0.44115,R,ugm-3,1.07036,R,ugm-3,72.74327,R,ugm-3
10-01-2015,04:00,0.27690,R,ugm-3,,,,,,,72.84305,R,ugm-3
10-01-2015,05:00,0.33833,R,ugm-3,,,,,,,73.09251,R,ugm-3
10-01-2015,06:00,0.27659,R,ugm-3,0.28448,R,ugm-3,0.70858,R,ugm-3,73.39187,R,ugm-3
10-01-2015,07:00,0.21516,R,ugm-3,0.42601,R,ugm-3,0.75592,R,ugm-3,73.44176,R,ugm-3
10-01-2015,08:00,0.30777,R,ugm-3,1.60602,R,ugm-3,2.07793,R,ugm-3,74.19015,R,ugm-3
10-01-2015,09:00,0.43094,R,ugm-3,2.69328,R,ugm-3,3.35405,R,ugm-3,76.68477,R,ugm-3
10-01-2015,10:00,0.61554,R,ugm-3,3.35500,R,ugm-3,4.29882,R,ugm-3,79.27918,R,ugm-3
10-01-2015,11:00,0.61585,R,ugm-3,2.83480,R,ugm-3,3.77910,R,ugm-3,77.13381,R,ugm-3
10-01-2015,12:00,0.76927,R,ugm-3,4.06406,R,ugm-3,5.24360,R,ugm-3,76.38542,R,ugm-3
10-01-2015,13:00,0.83101,R,ugm-3,4.34663,R,ugm-3,5.62084,R,ugm-3,74.88864,R,ugm-3
10-01-2015,14:00,0.73840,R,ugm-3,5.35500,R,ugm-3,6.48720,R,ugm-3,72.94284,R,ugm-3
10-01-2015,15:00,0.58530,R,ugm-3,6.61343,R,ugm-3,7.51087,R,ugm-3,71.49595,R,ugm-3
10-01-2015,16:00,0.46150,R,ugm-3,7.46449,R,ugm-3,8.17211,R,ugm-3,69.30068,R,ugm-3
10-01-2015,17:00,0.36920,R,ugm-3,7.08677,R,ugm-3,7.65287,R,ugm-3,67.50455,R,ugm-3
10-01-2015,18:00,0.40007,R,ugm-3,5.95266,R,ugm-3,6.56609,R,ugm-3,67.20520,R,ugm-3
10-01-2015,19:00,0.33833,R,ugm-3,5.57494,R,ugm-3,6.09370,R,ugm-3,68.35273,R,ugm-3
10-01-2015,20:00,0.43094,R,ugm-3,4.01577,R,ugm-3,4.67654,R,ugm-3,69.64993,R,ugm-3
10-01-2015,21:00,0.27659,R,ugm-3,2.97681,R,ugm-3,3.40090,R,ugm-3,72.44391,R,ugm-3
10-01-2015,22:00,0.30746,R,ugm-3,1.89051,R,ugm-3,2.36194,R,ugm-3,74.53940,R,ugm-3
10-01-2015,23:00,0.40007,R,ugm-3,1.22878,R,ugm-3,1.84222,R,ugm-3,75.98628,R,ugm-3
10-01-2015,24:00,0.43094,R,ugm-3,1.41764,R,ugm-3,2.07841,R,ugm-3,77.78241,R,ugm-3
11-01-2015,01:00,0.39976,R,ugm-3,0.47287,R,ugm-3,1.08582,R,ugm-3,74.77223,R,ugm-3
11-01-2015,02:00,0.12317,R,ugm-3,0.47191,R,ugm-3,0.66077,R,ugm-3,78.29796,R,ugm-3
11-01-2015,03:00,0.33833,R,ugm-3,0.31556,R,ugm-3,0.81855,R,ugm-3,79.12951,R,ugm-3
11-01-2015,04:00,0.39945,R,ugm-3,,,,,,,78.63058,R,ugm-3
11-01-2015,05:00,0.27690,R,ugm-3,,,,,,,77.38327,R,ugm-3
11-01-2015,06:00,0.33802,R,ugm-3,0.52020,R,ugm-3,1.03849,R,ugm-3,75.93639,R,ugm-3
11-01-2015,07:00,0.21516,R,ugm-3,0.37820,R,ugm-3,0.70810,R,ugm-3,75.03832,R,ugm-3
11-01-2015,08:00,0.39945,R,ugm-3,0.85058,R,ugm-3,1.46306,R,ugm-3,75.98628,R,ugm-3
11-01-2015,09:00,0.43032,R,ugm-3,1.55821,R,ugm-3,2.21802,R,ugm-3,75.83660,R,ugm-3
11-01-2015,10:00,0.64579,R,ugm-3,2.50155,R,ugm-3,3.49175,R,ugm-3,74.09036,R,ugm-3
11-01-2015,11:00,0.58405,R,ugm-3,3.68204,R,ugm-3,4.57757,R,ugm-3,73.94069,R,ugm-3
11-01-2015,12:00,0.52262,R,ugm-3,2.54888,R,ugm-3,3.35022,R,ugm-3,74.73897,R,ugm-3
11-01-2015,13:00,0.67635,R,ugm-3,3.44633,R,ugm-3,4.48338,R,ugm-3,76.28563,R,ugm-3
11-01-2015,14:00,0.64579,R,ugm-3,4.48386,R,ugm-3,5.47405,R,ugm-3,76.73467,R,ugm-3
11-01-2015,15:00,0.46088,R,ugm-3,3.63518,R,ugm-3,4.34185,R,ugm-3,77.43316,R,ugm-3
11-01-2015,16:00,0.36889,R,ugm-3,4.01195,R,ugm-3,4.57757,R,ugm-3,79.32908,R,ugm-3
11-01-2015,17:00,0.46119,R,ugm-3,4.24814,R,ugm-3,4.95529,R,ugm-3,78.48090,R,ugm-3
11-01-2015,18:00,0.43001,R,ugm-3,2.69089,R,ugm-3,3.35022,R,ugm-3,79.22929,R,ugm-3
11-01-2015,19:00,0.33833,R,ugm-3,2.21802,R,ugm-3,2.73679,R,ugm-3,81.07531,R,ugm-3
11-01-2015,20:00,0.27690,R,ugm-3,2.17117,R,ugm-3,2.59574,R,ugm-3,80.67617,R,ugm-3
11-01-2015,21:00,0.21547,R,ugm-3,1.03849,R,ugm-3,1.36887,R,ugm-3,80.02757,R,ugm-3
11-01-2015,22:00,0.39976,R,ugm-3,0.42553,R,ugm-3,1.03849,R,ugm-3,82.72177,R,ugm-3
11-01-2015,23:00,0.39976,R,ugm-3,0.89696,R,ugm-3,1.50992,R,ugm-3,85.76521,R,ugm-3
11-01-2015,24:00,0.27690,R,ugm-3,0.09467,R,ugm-3,0.51924,R,ugm-3,84.16865,R,ugm-3
12-01-2015,01:00,0.21485,R,ugm-3,0.51924,R,ugm-3,0.84867,R,ugm-3,86.74643,R,ugm-3
12-01-2015,02:00,0.15311,R,ugm-3,0.23667,R,ugm-3,0.47143,R,ugm-3,88.80865,R,ugm-3
12-01-2015,03:00,0.24572,R,ugm-3,0.61296,R,ugm-3,0.98972,R,ugm-3,87.96048,R,ugm-3
12-01-2015,04:00,0.15342,R,ugm-3,0.70763,R,ugm-3,0.94286,R,ugm-3,86.31403,R,ugm-3
12-01-2015,05:00,0.21485,R,ugm-3,0.80182,R,ugm-3,1.13124,R,ugm-3,87.31188,R,ugm-3
12-01-2015,06:00,0.18429,R,ugm-3,1.41429,R,ugm-3,1.69687,R,ugm-3,87.91059,R,ugm-3
12-01-2015,07:00,0.24572,R,ugm-3,3.15897,R,ugm-3,3.53573,R,ugm-3,87.51145,R,ugm-3
12-01-2015,08:00,0.33833,R,ugm-3,4.47908,R,ugm-3,4.99784,R,ugm-3,83.37037,R,ugm-3
12-01-2015,09:00,0.30746,R,ugm-3,3.20535,R,ugm-3,3.67678,R,ugm-3,78.43101,R,ugm-3
12-01-2015,10:00,0.33802,R,ugm-3,3.39469,R,ugm-3,3.91298,R,ugm-3,78.18155,R,ugm-3
12-01-2015,11:00,0.36858,R,ugm-3,4.24288,R,ugm-3,4.80803,R,ugm-3,77.63273,R,ugm-3
12-01-2015,12:00,0.39945,R,ugm-3,4.90269,R,ugm-3,5.51517,R,ugm-3,76.58499,R,ugm-3
12-01-2015,13:00,0.21485,R,ugm-3,4.52593,R,ugm-3,4.85536,R,ugm-3,75.88649,R,ugm-3
12-01-2015,14:00,0.49144,R,ugm-3,6.45947,R,ugm-3,7.21299,R,ugm-3,76.33553,R,ugm-3
12-01-2015,15:00,0.36920,R,ugm-3,11.59692,R,ugm-3,12.16302,R,ugm-3,73.09251,R,ugm-3
12-01-2015,16:00,0.33802,R,ugm-3,20.64878,R,ugm-3,21.16707,R,ugm-3,68.30283,R,ugm-3
12-01-2015,17:00,0.49144,R,ugm-3,27.76759,R,ugm-3,28.52111,R,ugm-3,57.97509,R,ugm-3
12-01-2015,18:00,0.61398,R,ugm-3,30.64447,R,ugm-3,31.58589,R,ugm-3,50.64089,R,ugm-3
12-01-2015,19:00,0.39976,R,ugm-3,20.60145,R,ugm-3,21.21441,R,ugm-3,48.94454,R,ugm-3
12-01-2015,20:00,0.55287,R,ugm-3,31.49218,R,ugm-3,32.33990,R,ugm-3,61.31788,R,ugm-3
12-01-2015,21:00,0.33802,R,ugm-3,14.09608,R,ugm-3,14.61437,R,ugm-3,42.90755,R,ugm-3
12-01-2015,22:00,0.21485,R,ugm-3,2.07506,R,ugm-3,2.40449,R,ugm-3,57.52605,R,ugm-3
12-01-2015,23:00,0.27659,R,ugm-3,1.17906,R,ugm-3,1.60315,R,ugm-3,78.58069,R,ugm-3
12-01-2015,24:00,0.21485,R,ugm-3,1.93354,R,ugm-3,2.26297,R,ugm-3,85.31618,R,ugm-3